Regional Weather Roundup
Issued by NWS

Home | Current Version | Previous Version | Graphics & Text | Print | Product List | Glossary On
Versions: 1 2 3 4 5 6 7 8 9 10 11 12 13 14 15 16 17 18 19 20 21 22 23 24 25 26 27 28 29 30 31 32 33 34 35 36 37 38 39 40 41 42 43 44 45 46 47 48 49 50
000
ASUS43 KBIS 272310
RWRND

NORTH DAKOTA REGIONAL WEATHER ROUNDUP
NATIONAL WEATHER SERVICE BISMARCK ND
500 PM CST SAT DEC 27 2014

NOTE: "FAIR" INDICATES FEW OR NO CLOUDS BELOW 12,000 FEET WITH NO
SIGNIFICANT WEATHER AND/OR OBSTRUCTIONS TO VISIBILITY.


NDZ001>003-009>011-017-280000-
NORTHWEST NORTH DAKOTA

CITY           SKY/WX    TMP DP  RH WIND       PRES   REMARKS
WILLISTON      CLOUDY    24  16  71 N5        29.99R WCI  18
MINOT          CLOUDY    22  15  75 NW8       29.97R WCI  12
MINOT AFB      CLOUDY    20  17  88 NW3       29.98R
$$

NDZ018>021-031>035-040>046-280000-
SOUTHWEST NORTH DAKOTA

CITY           SKY/WX    TMP DP  RH WIND       PRES   REMARKS
BISMARCK       PTCLDY    26  18  71 W12       30.00R WCI  16
DICKINSON      PTCLDY    21  13  71 W9        29.96R WCI  11
GARRISON         N/A     22  16  78 NW7       29.96R WCI  13
HETTINGER ARPT MOCLDY    25  15  66 W12       30.00R WCI  14
$$

NDZ004>008-012>016-024-026-027-054-280000-
NORTHEAST NORTH DAKOTA

CITY           SKY/WX    TMP DP  RH WIND       PRES   REMARKS
GRAND FORKS    CLOUDY    20  15  81 CALM      30.02S
GRND FRKS AFB  FLURRIES  19  19 100 SW3       30.02S
DEVILS LAKE    CLOUDY    21  16  79 SW5       29.97R WCI  15
$$

NDZ022-023-025-028>030-036>039-047>053-280000-
SOUTHEAST NORTH DAKOTA

CITY           SKY/WX    TMP DP  RH WIND       PRES   REMARKS
FARGO          CLOUDY    25  18  74 W8        30.03S WCI  16
JAMESTOWN      FLURRIES  24  17  74 W6        29.99R WCI  17
$$



USA.gov is the U.S. government's official web portal to all federal, state and local government web resources and services.